Volver al catálogo

COSMOS 2251 DEB

ActivoLEO
NORAD 35975·DEBRIS·🇷🇺 Russia

Lanzado Jun 16, 1993 desde Plesetsk Cosmodrome

Loading…

Próximos Pases (próximas 24 horas)

TLE

ObsoletoSource: Space-Track

Época: Sep 7, 2026, 13:07 UTC

1 35975U 93036AVR 26250.54720127  .00001621  00000-0  61600-3 0  9999
2 35975  74.0486 203.0860 0112993 218.7913 140.5087 14.28346993679382

Sigue COSMOS 2251 DEB en tiempo real con AllMySat

Download on the App Store